| time (UTC) | temp F | wind direction | speed MPH | gust MPH | rain 1hr in | rain 24hr in | rain mn in | humidity % | barometer mb |
| 20260507131404 | 61 | 224 | 0.0 | 0.0 | 0.00 | 0.00 | 0.00 | 44 | 1012.9 |
| 20260507130404 | 61 | 224 | 0.0 | 2.0 | 0.00 | 0.00 | 0.00 | 43 | 1012.8 |
| 20260507124404 | 61 | 224 | 0.0 | 1.0 | 0.00 | 0.00 | 0.00 | 41 | 1012.7 |
| 20260507123404 | 61 | 224 | 0.0 | 1.0 | 0.00 | 0.00 | 0.00 | 41 | 1012.6 |
| 20260507121405 | 63 | 224 | 0.0 | 2.0 | 0.00 | 0.00 | 0.00 | 38 | 1012.6 |
| 20260507114404 | 64 | 223 | 2.0 | 3.0 | 0.00 | 0.00 | 0.00 | 35 | 1012.9 |
| 20260507113404 | 64 | 221 | 2.0 | 3.0 | 0.00 | 0.00 | 0.00 | 35 | 1012.9 |
| 20260507111405 | 64 | 220 | 0.0 | 2.0 | 0.00 | 0.00 | 0.00 | 36 | 1013.0 |
| 20260507110405 | 64 | 220 | 2.0 | 3.0 | 0.00 | 0.00 | 0.00 | 36 | 1013.0 |
| 20260507071404 | 69 | 219 | 0.0 | 0.0 | 0.00 | 0.00 | 0.00 | 29 | 1013.7 |
| 20260507061404 | 73 | 219 | 3.0 | 6.0 | 0.00 | 0.00 | 0.00 | 25 | 1013.6 |
| 20260507060404 | 73 | 220 | 2.0 | 6.0 | 0.00 | 0.00 | 0.00 | 26 | 1013.6 |
| 20260507054404 | 72 | 225 | 2.0 | 3.0 | 0.00 | 0.00 | 0.00 | 27 | 1013.7 |
| 20260507053404 | 72 | 225 | 0.0 | 3.0 | 0.00 | 0.00 | 0.00 | 28 | 1013.7 |
| 20260507051406 | 73 | 225 | 1.0 | 3.0 | 0.00 | 0.00 | 0.00 | 27 | 1013.7 |
| 20260507044404 | 75 | 225 | 2.0 | 3.0 | 0.00 | 0.00 | 0.00 | 25 | 1013.4 |
| 20260507043405 | 75 | 225 | 2.0 | 5.0 | 0.00 | 0.00 | 0.00 | 25 | 1013.4 |
| 20260507040404 | 76 | 225 | 0.0 | 2.0 | 0.00 | 0.00 | 0.00 | 26 | 1013.0 |
| 20260507033404 | 78 | 225 | 1.0 | 3.0 | 0.00 | 0.00 | 0.00 | 24 | 1012.6 |
| 20260507031405 | 79 | 225 | 2.0 | 3.0 | 0.00 | 0.00 | 0.00 | 23 | 1012.3 |
| 20260507030405 | 79 | 225 | 2.0 | 7.0 | 0.00 | 0.00 | 0.00 | 22 | 1012.2 |
| 20260507024404 | 80 | 219 | 3.0 | 6.0 | 0.00 | 0.00 | 0.00 | 21 | 1011.8 |
| 20260507023404 | 80 | 219 | 4.0 | 10.0 | 0.00 | 0.00 | 0.00 | 21 | 1011.7 |
| 20260507021404 | 81 | 237 | 5.0 | 10.0 | 0.00 | 0.00 | 0.00 | 21 | 1011.5 |
| 20260506223404 | 88 | 222 | 3.0 | 13.0 | 0.00 | 0.00 | 0.00 | 19 | 1012.3 |
| 20260506221405 | 87 | 302 | 2.0 | 10.0 | 0.00 | 0.00 | 0.00 | 18 | 1012.5 |
| 20260506220404 | 88 | 285 | 4.0 | 9.0 | 0.00 | 0.00 | 0.00 | 18 | 1012.6 |
| 20260506214404 | 88 | 224 | 3.0 | 8.0 | 0.00 | 0.00 | 0.00 | 18 | 1013.0 |
| 20260506213403 | 88 | 166 | 4.0 | 12.0 | 0.00 | 0.00 | 0.00 | 19 | 1013.2 |
| 20260506211404 | 87 | 238 | 3.0 | 13.0 | 0.00 | 0.00 | 0.00 | 19 | 1013.6 |
| 20260506203404 | 88 | 254 | 5.0 | 12.0 | 0.00 | 0.00 | 0.00 | 19 | 1014.2 |
| 20260506201406 | 85 | 197 | 2.0 | 8.0 | 0.00 | 0.00 | 0.00 | 21 | 1014.3 |
| 20260506200405 | 86 | 237 | 3.0 | 13.0 | 0.00 | 0.00 | 0.00 | 19 | 1014.4 |
| 20260506194405 | 85 | 157 | 2.0 | 8.0 | 0.00 | 0.00 | 0.00 | 20 | 1014.6 |
| 20260506191405 | 83 | 143 | 1.0 | 6.0 | 0.00 | 0.00 | 0.00 | 21 | 1014.9 |
| 20260506190404 | 83 | 286 | 2.0 | 8.0 | 0.00 | 0.00 | 0.00 | 21 | 1015.0 |
| 20260506184404 | 84 | 176 | 2.0 | 10.0 | 0.00 | 0.00 | 0.00 | 21 | 1015.2 |
| 20260506183404 | 83 | 188 | 4.0 | 10.0 | 0.00 | 0.00 | 0.00 | 22 | 1015.4 |
| 20260506181404 | 82 | 250 | 5.0 | 10.0 | 0.00 | 0.00 | 0.00 | 24 | 1015.6 |
| 20260506180404 | 80 | 254 | 3.0 | 7.0 | 0.00 | 0.00 | 0.00 | 26 | 1015.6 |
| 20260506174404 | 80 | 235 | 1.0 | 8.0 | 0.00 | 0.00 | 0.00 | 26 | 1015.8 |
| 20260506173404 | 79 | 240 | 3.0 | 8.0 | 0.00 | 0.00 | 0.00 | 27 | 1015.8 |
| 20260506171405 | 78 | 225 | 3.0 | 8.0 | 0.00 | 0.00 | 0.00 | 28 | 1015.8 |
| 20260506170405 | 77 | 201 | 1.0 | 8.0 | 0.00 | 0.00 | 0.00 | 29 | 1015.8 |
| 20260506164406 | 75 | 305 | 3.0 | 5.0 | 0.00 | 0.00 | 0.00 | 30 | 1015.8 |
| 20260506163404 | 74 | 200 | 2.0 | 5.0 | 0.00 | 0.00 | 0.00 | 31 | 1015.7 |
| 20260506161404 | 72 | 196 | 0.0 | 5.0 | 0.00 | 0.00 | 0.00 | 32 | 1015.5 |
| 20260506160404 | 72 | 197 | 1.0 | 3.0 | 0.00 | 0.00 | 0.00 | 34 | 1015.6 |
| 20260506154405 | 69 | 320 | 1.0 | 3.0 | 0.00 | 0.00 | 0.00 | 35 | 1015.5 |
| 20260506153404 | 69 | 320 | 1.0 | 3.0 | 0.00 | 0.00 | 0.00 | 35 | 1015.7 |
| 20260506150404 | 66 | 317 | 1.0 | 5.0 | 0.00 | 0.00 | 0.00 | 38 | 1015.6 |
| 20260506144404 | 65 | 316 | 2.0 | 5.0 | 0.00 | 0.00 | 0.00 | 39 | 1015.6 |
| 20260506141404 | 63 | 239 | 2.0 | 5.0 | 0.00 | 0.00 | 0.00 | 42 | 1015.3 |
| 20260506134404 | 61 | 223 | 2.0 | 5.0 | 0.00 | 0.00 | 0.00 | 44 | 1014.9 |
| 20260506133405 | 60 | 220 | 3.0 | 5.0 | 0.00 | 0.00 | 0.00 | 46 | 1014.8 |